Portada
METAR-TAF:

METAR-TAF

Aeroports :

Base aèria

Santos, São Paulo, Brasil

latitud: 23-56S, longitud: 046-18W, altitud: 3 m

Observació

L'informe es va fer fa 46 minuts, a les 18:00 UTC
Vent 5 kt del Sud/Sud-Oest, variant entre Sud/Sud-Est i Oest
Temperatura 27°C
Humitat 70%
Pressió 1013 hPa
Visibilitat 10 km o més
Núvols disperses a una alçada de 2700 ft

METAR: SBST 211800Z 20005KT 150V260 9999 SCT027 27/21 Q1013

Hora: 16:46 (18:46 UTC)


TAF: manca

Observacions i pronòstics meteorològics de més de 4000 aeroports (METAR i TAF).

Les estacions disponibles són els punts grocs i vermells al mapa.

Posi el ratolí al punt desitjat per veure el nom de l'estació.

Feu clic per veure les observacions i els pronòstics meteorològics.

Per canviar el mapa: feu clic els botons verds amb una creu de color negre per apropar; al botó verd amb un guió per allunyar la imatge; o en les fletxes verdes per a mapes adjacents.


METAR-TAF: